Time,TemperatureF,DewpointF,PressureIn,WindDirection,WindDirectionDegrees,WindSpeedMPH,WindSpeedGustMPH,Humidity,HourlyPrecipIn,Conditions,Clouds,dailyrainin,SolarRadiationWatts/m^2,SoftwareType,DateUTC
2013-11-02 00:04:00,47.0,39.0,-100.00,North,0,4.0,9.0,74,0.00,,,0.19,0.000000,,2013-11-02 04:04:00,
2013-11-02 00:44:00,47.0,38.0,-100.00,North,0,6.0,11.0,70,0.00,,,0.18,0.000000,,2013-11-02 04:44:00,
2013-11-02 00:54:00,47.0,38.0,-100.00,North,0,6.0,11.0,70,0.00,,,0.18,0.000000,,2013-11-02 04:54:00,
2013-11-02 01:04:00,47.0,38.0,-100.00,North,0,6.0,11.0,70,0.00,,,0.18,0.000000,,2013-11-02 05:04:00,
2013-11-02 01:42:00,48.0,38.0,-100.00,North,0,7.0,16.0,69,0.00,,,0.18,0.000000,,2013-11-02 05:42:00,
2013-11-02 01:52:00,48.0,38.0,-100.00,North,0,7.0,16.0,69,0.00,,,0.18,0.000000,,2013-11-02 05:52:00,
2013-11-02 02:02:00,48.0,38.0,-100.00,North,0,7.0,16.0,69,0.00,,,0.18,0.000000,,2013-11-02 06:02:00,
2013-11-02 02:43:00,49.0,38.0,-100.00,North,0,8.0,17.0,66,0.00,,,0.18,0.000000,,2013-11-02 06:43:00,
2013-11-02 02:52:00,49.0,38.0,-100.00,North,0,8.0,17.0,66,0.00,,,0.18,0.000000,,2013-11-02 06:52:00,
2013-11-02 03:03:00,49.0,38.0,-100.00,North,0,8.0,17.0,66,0.00,,,0.18,0.000000,,2013-11-02 07:03:00,
2013-11-02 03:42:00,48.0,38.0,-100.00,North,0,7.0,17.0,69,0.00,,,-99.99,0.000000,,2013-11-02 07:42:00,
2013-11-02 03:52:00,48.0,38.0,-100.00,North,0,7.0,17.0,69,0.00,,,-99.99,0.000000,,2013-11-02 07:52:00,
2013-11-02 04:02:00,48.0,38.0,-100.00,North,0,7.0,17.0,69,0.00,,,-99.99,0.000000,,2013-11-02 08:02:00,
2013-11-02 04:42:00,48.0,38.0,-100.00,North,0,6.0,20.0,69,0.00,,,0.18,0.000000,,2013-11-02 08:42:00,
2013-11-02 04:52:00,48.0,38.0,-100.00,North,0,6.0,20.0,69,0.00,,,0.18,0.000000,,2013-11-02 08:52:00,
2013-11-02 05:02:00,48.0,38.0,-100.00,North,0,6.0,20.0,69,0.00,,,0.18,0.000000,,2013-11-02 09:02:00,
2013-11-02 05:43:00,45.0,40.0,-100.00,North,0,3.0,11.0,83,0.00,,,0.06,0.000000,,2013-11-02 09:43:00,
2013-11-02 05:53:00,45.0,40.0,-100.00,North,0,3.0,11.0,83,0.00,,,0.06,0.000000,,2013-11-02 09:53:00,
2013-11-02 06:03:00,45.0,40.0,-100.00,North,0,3.0,11.0,83,0.00,,,0.06,0.000000,,2013-11-02 10:03:00,
2013-11-02 06:43:00,44.0,44.0,-100.00,North,0,3.0,7.0,99,0.00,,,0.05,0.000000,,2013-11-02 10:43:00,
2013-11-02 06:53:00,44.0,44.0,-100.00,North,0,3.0,7.0,99,0.00,,,0.05,0.000000,,2013-11-02 10:53:00,
2013-11-02 07:02:00,44.0,44.0,-100.00,North,0,3.0,7.0,99,0.00,,,0.05,0.000000,,2013-11-02 11:02:00,
2013-11-02 07:42:00,43.0,43.0,-100.00,North,0,4.0,7.0,100,0.00,,,0.00,0.000000,,2013-11-02 11:42:00,
2013-11-02 07:52:00,43.0,43.0,-100.00,North,0,4.0,7.0,100,0.00,,,0.00,0.000000,,2013-11-02 11:52:00,
2013-11-02 08:02:00,43.0,43.0,-100.00,North,0,4.0,7.0,100,0.00,,,0.00,0.000000,,2013-11-02 12:02:00,
2013-11-02 08:42:00,43.0,42.0,-100.00,North,0,6.0,10.0,98,0.00,,,0.00,2.000000,,2013-11-02 12:42:00,
2013-11-02 08:52:00,43.0,42.0,-100.00,North,0,6.0,10.0,98,0.00,,,0.00,2.000000,,2013-11-02 12:52:00,
2013-11-02 09:02:00,43.0,42.0,-100.00,North,0,6.0,10.0,98,0.00,,,0.00,2.000000,,2013-11-02 13:02:00,
2013-11-02 09:42:00,43.0,43.0,-100.00,North,0,6.0,14.0,100,0.00,,,0.00,30.000000,,2013-11-02 13:42:00,
2013-11-02 09:52:00,43.0,43.0,-100.00,North,0,6.0,14.0,100,0.00,,,0.00,30.000000,,2013-11-02 13:52:00,
2013-11-02 10:02:00,43.0,43.0,-100.00,North,0,6.0,14.0,100,0.00,,,0.00,30.000000,,2013-11-02 14:02:00,
2013-11-02 10:42:00,44.0,42.0,-100.00,North,0,8.0,18.0,93,0.00,,,0.00,115.000000,,2013-11-02 14:42:00,
2013-11-02 10:52:00,44.0,42.0,-100.00,North,0,8.0,18.0,93,0.00,,,0.00,115.000000,,2013-11-02 14:52:00,
2013-11-02 11:02:00,44.0,42.0,-100.00,North,0,8.0,18.0,93,0.00,,,0.00,115.000000,,2013-11-02 15:02:00,
2013-11-02 11:43:00,45.0,40.0,-100.00,North,0,7.0,17.0,82,0.00,,,0.00,162.000000,,2013-11-02 15:43:00,
2013-11-02 11:53:00,45.0,40.0,-100.00,North,0,7.0,17.0,82,0.00,,,0.00,162.000000,,2013-11-02 15:53:00,
2013-11-02 12:03:00,45.0,40.0,-100.00,North,0,7.0,17.0,82,0.00,,,0.00,162.000000,,2013-11-02 16:03:00,
2013-11-02 12:43:00,45.0,38.0,-100.00,North,0,11.0,20.0,75,0.00,,,0.00,232.000000,,2013-11-02 16:43:00,
2013-11-02 12:54:00,45.0,38.0,-100.00,North,0,11.0,20.0,75,0.00,,,0.00,232.000000,,2013-11-02 16:54:00,
2013-11-02 13:03:00,45.0,38.0,-100.00,North,0,11.0,20.0,75,0.00,,,0.00,232.000000,,2013-11-02 17:03:00,
2013-11-02 13:43:00,44.0,37.0,-100.00,North,0,10.0,20.0,76,0.00,,,0.00,160.000000,,2013-11-02 17:43:00,
2013-11-02 13:53:00,44.0,37.0,-100.00,North,0,10.0,20.0,76,0.00,,,0.00,160.000000,,2013-11-02 17:53:00,
2013-11-02 14:03:00,44.0,37.0,-100.00,North,0,10.0,20.0,76,0.00,,,0.00,160.000000,,2013-11-02 18:03:00,
2013-11-02 14:42:00,43.0,38.0,-100.00,North,0,7.0,15.0,81,0.00,,,0.00,71.000000,,2013-11-02 18:42:00,
2013-11-02 14:53:00,43.0,38.0,-100.00,North,0,7.0,15.0,81,0.00,,,0.00,71.000000,,2013-11-02 18:53:00,
2013-11-02 15:02:00,43.0,38.0,-100.00,North,0,7.0,15.0,81,0.00,,,0.00,71.000000,,2013-11-02 19:02:00,
2013-11-02 15:42:00,43.0,42.0,-100.00,North,0,7.0,17.0,95,0.00,,,0.00,80.000000,,2013-11-02 19:42:00,
2013-11-02 15:52:00,43.0,42.0,-100.00,North,0,7.0,17.0,95,0.00,,,0.00,80.000000,,2013-11-02 19:52:00,
2013-11-02 16:02:00,43.0,42.0,-100.00,North,0,7.0,17.0,95,0.00,,,0.00,80.000000,,2013-11-02 20:02:00,
2013-11-02 16:43:00,44.0,38.0,-100.00,North,0,10.0,20.0,79,0.00,,,0.00,137.000000,,2013-11-02 20:43:00,
2013-11-02 16:53:00,44.0,38.0,-100.00,North,0,10.0,20.0,79,0.00,,,0.00,137.000000,,2013-11-02 20:53:00,
2013-11-02 17:02:00,44.0,38.0,-100.00,North,0,10.0,20.0,79,0.00,,,0.00,137.000000,,2013-11-02 21:02:00,
2013-11-02 17:44:00,40.0,40.0,-100.00,North,0,9.0,19.0,100,0.01,,,0.01,49.000000,,2013-11-02 21:44:00,
2013-11-02 17:54:00,40.0,40.0,-100.00,North,0,9.0,19.0,100,0.01,,,0.01,49.000000,,2013-11-02 21:54:00,
2013-11-02 18:03:00,40.0,40.0,-100.00,North,0,9.0,19.0,100,0.01,,,0.01,49.000000,,2013-11-02 22:03:00,
2013-11-02 18:44:00,40.0,40.0,-100.00,North,0,7.0,16.0,100,0.00,,,0.01,13.000000,,2013-11-02 22:44:00,
2013-11-02 18:54:00,40.0,40.0,-100.00,North,0,7.0,16.0,100,0.00,,,0.01,13.000000,,2013-11-02 22:54:00,
2013-11-02 19:02:00,40.0,40.0,-100.00,North,0,7.0,16.0,100,0.00,,,0.01,13.000000,,2013-11-02 23:02:00,
2013-11-02 19:42:00,38.0,38.0,-100.00,North,0,6.0,18.0,100,0.05,,,0.06,1.000000,,2013-11-02 23:42:00,
2013-11-02 19:52:00,38.0,38.0,-100.00,North,0,6.0,18.0,100,0.05,,,0.06,1.000000,,2013-11-02 23:52:00,
2013-11-02 20:02:00,38.0,38.0,-100.00,North,0,6.0,18.0,100,0.05,,,0.06,1.000000,,2013-11-03 00:02:00,
2013-11-02 20:42:00,39.0,39.0,-100.00,North,0,8.0,14.0,100,0.00,,,0.06,0.000000,,2013-11-03 00:42:00,
2013-11-02 20:52:00,39.0,39.0,-100.00,North,0,8.0,14.0,100,0.00,,,0.06,0.000000,,2013-11-03 00:52:00,
2013-11-02 21:02:00,39.0,39.0,-100.00,North,0,8.0,14.0,100,0.00,,,0.06,0.000000,,2013-11-03 01:02:00,
2013-11-02 21:42:00,39.0,39.0,-100.00,North,0,7.0,17.0,100,0.04,,,0.10,0.000000,,2013-11-03 01:42:00,
2013-11-02 21:52:00,39.0,39.0,-100.00,North,0,7.0,17.0,100,0.04,,,0.10,0.000000,,2013-11-03 01:52:00,
2013-11-02 22:02:00,39.0,39.0,-100.00,North,0,7.0,17.0,100,0.04,,,0.10,0.000000,,2013-11-03 02:02:00,
2013-11-02 22:43:00,38.0,38.0,-100.00,North,0,8.0,21.0,100,0.01,,,0.11,0.000000,,2013-11-03 02:43:00,
2013-11-02 22:52:00,38.0,38.0,-100.00,North,0,8.0,21.0,100,0.01,,,0.11,0.000000,,2013-11-03 02:52:00,
2013-11-02 23:02:00,38.0,38.0,-100.00,North,0,8.0,21.0,100,0.01,,,0.11,0.000000,,2013-11-03 03:02:00,
2013-11-02 23:45:00,38.0,38.0,-100.00,North,0,7.0,18.0,100,0.00,,,0.11,0.000000,,2013-11-03 03:45:00,
2013-11-02 23:54:00,38.0,38.0,-100.00,North,0,7.0,18.0,100,0.00,,,0.11,0.000000,,2013-11-03 03:54:00,